[[{"header":{"parameterUnit":"m.s-1","parameterCategory":1,"la1":30.2991,"la2":30.254,"lo1":-89.0895,"lo2":-89.0444,"dy":0.0017,"dx":0.0017,"nx":28,"ny":28,"refTime":"2023-08-05T03:00:00:Z","depth":0,"parameterNumber":2,"parameterNumberName":"U-component_of_WINDS"},"data":[0,0,0,0,0,0,0,0,0,0,0,0,0,0,0,0,0,0,0,0,0,0,0,0,0,0,0,0,0,0,0,0,0,0,0,0,0,0,0,0,0,0,0,0,0,0,0,0,0,0,0,0,0,0,0,0,0,0,1.9437,1.9438,0,1.9547,1.9548,1.955,1.9563,1.9562,1.9561,1.956,1.9678,1.9682,1.9686,0,0,0,0,0,0,0,0,0,0,0,0,0,1.9242,1.9246,1.9437,1.9438,1.9439,1.9547,1.9549,1.955,1.9563,1.9562,1.956,1.9559,1.9676,1.9681,1.9686,0,0,0,0,0,0,0,0,0,0,0,0,0,1.9337,1.9247,1.9436,1.9459,1.9462,1.9547,1.9549,1.955,1.9563,1.9562,1.956,1.9559,1.9675,1.9681,1.9687,1.9758,0,0,1.9706,1.9709,0,0,0,0,0,0,0,0,1.9332,1.9344,1.9454,1.9457,1.9461,1.9539,1.9523,1.962,1.9564,1.9525,1.956,1.9558,1.9633,1.9643,1.9667,1.9764,1.9769,1.9706,1.971,1.9713,1.9715,0,0,0,0,0,0,0,1.9325,1.934,1.9481,1.9456,1.946,1.9465,1.9477,1.9542,1.9587,1.9528,1.9529,1.9542,1.9635,1.9661,1.967,1.9771,1.9706,1.9712,1.9716,1.9718,1.9933,1.9935,0,0,0,0,0,0,1.9314,1.9334,1.9477,1.9484,1.9391,1.947,1.9483,1.9516,1.9586,1.9596,1.9543,1.9542,1.9651,1.9663,1.9674,1.9763,1.9713,1.9719,1.9722,1.9931,1.9933,1.9935,0,0,0,0,0,0,1.9309,1.9326,1.9473,1.9409,1.9428,1.9475,1.9512,1.9519,1.9545,1.9598,1.9607,1.9562,1.9651,1.9666,1.9737,1.9767,1.9722,1.9727,1.9928,1.9931,1.9934,1.994,0,0,0,0,0,0,1.9304,1.9325,1.9351,1.941,1.9432,1.9532,1.9514,1.9522,1.9556,1.9555,1.9617,1.9626,1.965,1.9728,1.9743,1.9775,1.9732,1.9926,1.993,1.9933,1.9938,1.9943,1.9948,0,0,0,0,0,1.9297,1.9349,1.9352,1.9369,1.9465,1.9533,1.9546,1.9572,1.9558,1.9586,1.962,1.9624,1.9762,1.9735,1.9753,1.9787,1.9924,1.9929,1.9933,1.9935,1.9942,1.9948,0,0,0,0,0,0,1.9294,1.9357,1.9361,1.9434,1.9478,1.9535,1.9571,1.9578,1.9628,1.9626,1.9657,1.9671,1.9742,1.9772,1.9741,1.986,1.9842,1.985,1.9837,1.9844,1.9849,1.984,1.9737,0,0,0,0,0,1.9301,1.935,1.9404,1.9462,1.9484,1.9524,1.9555,1.9571,1.9618,1.9638,1.9677,1.9724,1.9778,1.9813,1.9866,1.9942,1.9957,1.9975,1.998,1.9984,1.999,2.0033,2.0042,1.995,1.995,1.995,0,0,1.9318,1.9358,1.9387,1.9463,1.9499,1.955,1.954,1.9594,1.9633,1.9646,1.9716,1.9746,1.9802,1.9876,1.9911,1.9903,2.0019,1.9989,1.9992,1.9996,2.0039,2.0048,2.0055,1.9953,1.9952,1.9952,0,0,1.9374,1.9409,1.9462,1.9499,1.9553,1.9579,1.9592,1.9649,1.9669,1.9739,1.9751,1.9799,1.9891,1.993,1.9962,2.0034,2.004,2.0051,2.0077,2.0119,2.0126,2.0132,2.0158,2.0167,2.0057,2.0057,2.0057,0,1.9387,1.9463,1.9489,1.9543,1.9576,1.959,1.9645,1.968,1.9749,1.9773,1.9763,1.9879,1.9918,2.0001,2.0019,2.0045,2.0061,2.0043,2.0122,2.0129,2.0136,2.0161,2.017,2.0058,2.0058,2.0058,2.0058,0,1.9478,1.9531,1.9567,1.9633,1.967,1.9725,1.976,1.9796,1.9809,1.9837,1.9909,1.9955,2.0018,2.0039,2.0053,2.0126,2.0119,2.0116,2.0098,2.0145,2.0169,2.0179,2.0059,2.0059,2.0058,2.0058,0,0,1.9533,1.9613,1.9626,1.9656,1.9718,1.976,1.9816,1.9876,1.9906,1.9954,2.0002,2.008,2.0077,2.0114,2.0133,2.017,2.0224,2.0162,2.0164,2.0171,2.0307,2.0309,2.0319,2.0229,2.0231,2.0233,2.0302,0,1.9596,1.9693,1.9719,1.9803,1.9853,1.9867,1.9916,1.9961,1.9989,2.0036,2.0068,2.0123,2.0115,2.0137,2.0174,2.0209,2.0252,2.0205,2.0275,2.0277,2.0259,2.0332,2.0333,2.0397,2.0312,2.0314,2.0315,0,1.9681,1.973,1.9818,1.9874,1.9896,1.9939,1.9997,2.0042,2.0093,2.0111,2.0152,2.0167,2.0228,2.0208,2.0292,2.026,2.029,2.0312,2.0315,2.0322,2.0298,2.034,2.0418,2.0427,2.033,2.0329,2.0328,0,1.9712,1.98,1.9865,1.989,1.9957,1.9988,2.0017,2.0067,2.0101,2.0152,2.0175,2.0233,2.0265,2.031,2.0342,2.0324,2.0424,2.0406,2.0441,2.044,2.046,2.0458,2.0543,2.0481,2.0481,2.0481,2.0481,0,1.9779,1.9832,1.9879,1.9919,1.998,2.001,2.007,2.0101,2.0145,2.0192,2.0209,2.0253,2.0292,2.0342,2.0368,2.0434,2.0448,2.0465,2.0471,2.0463,2.0461,2.0483,2.0479,2.0484,2.0483,2.0483,2.0482,0,1.9823,1.9857,1.9928,1.9986,2.0002,2.0044,2.0095,2.0135,2.0164,2.0223,2.0239,2.0285,2.0344,2.038,2.0456,2.0473,2.0546,2.0551,2.0528,2.0531,2.0563,2.056,2.0665,2.068,2.0609,2.0609,2.061,0,1.9863,1.9904,1.9967,1.9998,2.0028,2.008,2.0115,2.0147,2.0184,2.0246,2.0278,2.0339,2.0388,2.0483,2.0525,2.0583,2.0589,2.0622,2.0598,2.0588,2.0589,2.0585,2.059,2.0625,2.0626,2.0627,2.0627,0,1.9929,1.9944,1.9994,2.0049,2.0091,2.0137,2.0182,2.0208,2.0248,2.0288,2.0349,2.0387,2.0465,2.0525,2.0587,2.0619,2.063,2.0634,2.0646,2.0637,2.0622,2.063,2.0538,2.0632,2.0631,2.0631,2.0631,2.063,1.9972,2.001,2.006,2.0115,2.0152,2.0195,2.0235,2.0269,2.032,2.0384,2.0401,2.0464,2.0516,2.06,2.0634,2.0686,2.0681,2.0697,2.0701,2.0704,2.0704,2.0615,2.0697,2.0697,2.0697,2.0697,2.0697,0,2.0039,2.0072,2.0123,2.0186,2.0229,2.0235,2.0287,2.0323,2.0378,2.0425,2.0473,2.0544,2.0602,2.0648,2.0709,2.0741,2.0748,2.0756,2.0753,2.0761,2.0706,2.0689,2.0749,2.0749,2.0749,2.0749,2.0749,2.0749,2.0079,2.0143,2.0164,2.0248,2.0281,2.0342,2.0371,2.0411,2.0449,2.0525,2.0574,2.0603,2.065,2.0715,2.0769,2.0782,2.0803,2.081,2.0823,2.077,2.0765,2.0759,2.0744,2.0815,2.0815,2.0874,2.0874,2.0875]},{"header":{"parameterUnit":"m.s-1","parameterCategory":1,"la1":30.2991,"la2":30.254,"lo1":-89.0895,"lo2":-89.0444,"dy":0.0017,"dx":0.0017,"nx":28,"ny":28,"refTime":"2023-08-05T03:00:00:Z","depth":0,"parameterNumber":3,"parameterNumberName":"V-component_of_WINDS"},"data":[0,0,0,0,0,0,0,0,0,0,0,0,0,0,0,0,0,0,0,0,0,0,0,0,0,0,0,0,0,0,0,0,0,0,0,0,0,0,0,0,0,0,0,0,0,0,0,0,0,0,0,0,0,0,0,0,0,0,4.5758,4.5758,0,4.582,4.5821,4.5822,4.5839,4.5839,4.5838,4.5838,4.5896,4.5898,4.5899,0,0,0,0,0,0,0,0,0,0,0,0,0,4.5645,4.5647,4.5758,4.5758,4.5759,4.582,4.5821,4.5822,4.5839,4.5839,4.5838,4.5838,4.5895,4.5897,4.59,0,0,0,0,0,0,0,0,0,0,0,0,0,4.5699,4.5647,4.5758,4.5775,4.5778,4.582,4.5821,4.5822,4.5839,4.5839,4.5838,4.5838,4.5894,4.5897,4.59,4.5927,0,0,4.5908,4.5909,0,0,0,0,0,0,0,0,4.5696,4.5703,4.5772,4.5774,4.5777,4.5822,4.5802,4.5857,4.5839,4.5816,4.5838,4.5838,4.5871,4.5876,4.5888,4.593,4.5932,4.5909,4.591,4.5911,4.5912,0,0,0,0,0,0,0,4.5692,4.5701,4.5782,4.5773,4.5776,4.5778,4.5785,4.5813,4.5845,4.5818,4.5819,4.5827,4.5872,4.5886,4.589,4.5933,4.5908,4.5911,4.5913,4.5914,4.5997,4.5997,0,0,0,0,0,0,4.5686,4.5697,4.578,4.5784,4.5735,4.578,4.5788,4.5808,4.5845,4.585,4.5827,4.5827,4.5881,4.5887,4.5892,4.5925,4.5911,4.5914,4.5916,4.5996,4.5997,4.5998,0,0,0,0,0,0,4.5684,4.5694,4.5778,4.5741,4.5752,4.5783,4.5804,4.5809,4.5823,4.5852,4.5857,4.5835,4.5881,4.5888,4.5918,4.5927,4.5915,4.5918,4.5996,4.5997,4.5997,4.5991,0,0,0,0,0,0,4.5681,4.5693,4.5706,4.5741,4.5754,4.5805,4.5805,4.5811,4.5828,4.5829,4.5861,4.5866,4.5881,4.5914,4.5921,4.5931,4.592,4.5995,4.5996,4.5997,4.5991,4.5992,4.5993,0,0,0,0,0,4.5677,4.57,4.5706,4.5716,4.5771,4.5806,4.5813,4.5832,4.5829,4.584,4.5859,4.5865,4.5925,4.5917,4.5925,4.5936,4.5995,4.5996,4.5997,4.5991,4.5992,4.5993,0,0,0,0,0,0,4.5663,4.5706,4.5712,4.5749,4.5774,4.5809,4.5824,4.5832,4.5857,4.5856,4.5876,4.5883,4.5912,4.5927,4.5917,4.5962,4.596,4.5962,4.5952,4.5953,4.5954,4.595,4.5922,0,0,0,0,0,4.5664,4.5692,4.5727,4.5755,4.5768,4.5794,4.581,4.5822,4.5847,4.5857,4.5878,4.5901,4.5925,4.594,4.5963,4.5993,4.5999,4.6004,4.6005,4.6006,4.6008,4.6022,4.6024,4.6002,4.6002,4.6002,0,0,4.5667,4.5694,4.571,4.5753,4.5774,4.5799,4.5802,4.5829,4.5847,4.5861,4.5891,4.5906,4.5933,4.5962,4.5976,4.5976,4.6015,4.6007,4.6008,4.6009,4.6024,4.6026,4.6028,4.6002,4.6002,4.6002,0,0,4.5685,4.5709,4.5735,4.5756,4.5788,4.5805,4.5811,4.5844,4.5856,4.5886,4.5897,4.5917,4.5958,4.5976,4.599,4.6013,4.6018,4.6019,4.6024,4.6038,4.604,4.6041,4.6048,4.605,4.6021,4.6021,4.6021,0,4.5684,4.5725,4.5747,4.5773,4.5791,4.5806,4.583,4.5848,4.5885,4.5896,4.5895,4.5946,4.5965,4.5997,4.6003,4.6015,4.602,4.6016,4.6038,4.604,4.6042,4.6048,4.6051,4.6021,4.6021,4.6021,4.6021,0,4.5721,4.5749,4.5765,4.5803,4.5822,4.5847,4.587,4.5886,4.5896,4.5912,4.5941,4.5964,4.5992,4.6001,4.601,4.6034,4.6033,4.6035,4.6032,4.6044,4.605,4.6052,4.6021,4.6021,4.6021,4.6021,0,0,4.5733,4.5781,4.5787,4.5803,4.5838,4.5859,4.5883,4.5912,4.5925,4.5949,4.5968,4.6002,4.6004,4.602,4.6031,4.6043,4.6057,4.6044,4.6044,4.6044,4.6083,4.6081,4.6084,4.6062,4.6062,4.6063,4.6081,0,4.5755,4.5802,4.5821,4.5858,4.5882,4.5895,4.5916,4.5938,4.5954,4.5974,4.599,4.6013,4.6014,4.6024,4.6037,4.6053,4.6065,4.6052,4.6077,4.6078,4.607,4.6087,4.6085,4.6101,4.6083,4.6084,4.6084,0,4.5786,4.5813,4.5852,4.5883,4.5894,4.5913,4.594,4.596,4.5984,4.5994,4.6012,4.6022,4.6045,4.6041,4.6072,4.6062,4.6073,4.6083,4.6084,4.6086,4.6081,4.6089,4.6107,4.6109,4.6088,4.6088,4.6088,0,4.5789,4.5834,4.5863,4.5877,4.5914,4.5926,4.5942,4.5966,4.5981,4.6004,4.6014,4.6038,4.6051,4.6068,4.6083,4.6079,4.6112,4.6109,4.6119,4.6118,4.6125,4.6124,4.6144,4.6133,4.6133,4.6133,4.6133,0,4.5811,4.5834,4.5865,4.5883,4.5908,4.5928,4.5952,4.5968,4.5989,4.6008,4.6021,4.6038,4.6058,4.6077,4.6088,4.6111,4.6117,4.6124,4.6126,4.6122,4.6121,4.6129,4.6128,4.6133,4.6133,4.6133,4.6133,0,4.5818,4.584,4.5873,4.5905,4.5914,4.5931,4.5957,4.5973,4.5989,4.6013,4.6019,4.6042,4.6065,4.6082,4.6111,4.6119,4.6143,4.6146,4.6135,4.6136,4.6144,4.6143,4.6169,4.6173,4.616,4.616,4.6161,0,4.583,4.5849,4.5883,4.5898,4.5914,4.5937,4.5953,4.5973,4.5989,4.6017,4.6029,4.6053,4.6073,4.6108,4.6126,4.6148,4.6151,4.6159,4.6154,4.6149,4.615,4.6148,4.6149,4.6159,4.6159,4.6159,4.6159,0,4.5848,4.5858,4.5882,4.591,4.5929,4.5951,4.5972,4.5983,4.6006,4.6022,4.6047,4.6063,4.6092,4.6115,4.6138,4.6151,4.6158,4.616,4.6164,4.6159,4.6152,4.6155,4.6136,4.616,4.616,4.616,4.616,4.616,4.5858,4.5874,4.5901,4.5927,4.5945,4.5965,4.5982,4.5999,4.6021,4.6048,4.6057,4.6082,4.6103,4.6136,4.6149,4.6166,4.6167,4.6171,4.6172,4.6173,4.6172,4.615,4.6171,4.6171,4.6171,4.6171,4.6171,0,4.5876,4.5893,4.5917,4.5948,4.5967,4.5974,4.5998,4.6013,4.6035,4.6056,4.6075,4.6102,4.6124,4.6143,4.6165,4.6176,4.6179,4.618,4.618,4.6182,4.6171,4.6166,4.6177,4.6177,4.6177,4.6177,4.6177,4.6177,4.5887,4.5915,4.5927,4.5963,4.598,4.6006,4.6019,4.6036,4.6053,4.6083,4.6102,4.6115,4.6134,4.6157,4.6177,4.6182,4.6188,4.6189,4.6194,4.6184,4.6183,4.6182,4.6177,4.6191,4.6191,4.6204,4.6204,4.6204]}]]